This is the latest recevied weather packets stored in our database for station/object DM3FAM-10. If no packets are shown the sender has not sent any weather packets the latest 10 day(s).
| Time | Temp. | Humidity | Pressure | Rain* | Wind** | Luminosity | Snow |
|---|---|---|---|---|---|---|---|
| 1777873061 | 11.11° C | 100% | 965.7 hPa | - | - | - | - |
| 1777872161 | 10.56° C | 100% | 965.8 hPa | - | - | - | - |
| 1777871261 | 9.44° C | 100% | 965.8 hPa | - | - | - | - |
| 1777870361 | 8.89° C | 100% | 965.9 hPa | - | - | - | - |
| 1777869460 | 8.33° C | 100% | 965.9 hPa | - | - | - | - |
| 1777868560 | 7.78° C | 100% | 966 hPa | - | - | - | - |
| 1777867660 | 7.22° C | 100% | 966.2 hPa | - | - | - | - |
| 1777866760 | 6.67° C | 100% | 966.3 hPa | - | - | - | - |
| 1777865860 | 7.22° C | 100% | 966.3 hPa | - | - | - | - |
| 1777864960 | 6.67° C | 100% | 966.5 hPa | - | - | - | - |
| 1777863159 | 7.22° C | 100% | 966.5 hPa | - | - | - | - |
| 1777862259 | 6.67° C | 100% | 966.4 hPa | - | - | - | - |
| 1777861359 | 7.22° C | 100% | 966.5 hPa | - | - | - | - |
| 1777860459 | 7.78° C | 100% | 966.5 hPa | - | - | - | - |
| 1777859559 | 7.78° C | 100% | 966.4 hPa | - | - | - | - |
| 1777858659 | 7.78° C | 100% | 966.4 hPa | - | - | - | - |
| 1777856858 | 8.89° C | 100% | 966.4 hPa | - | - | - | - |
| 1777855958 | 9.44° C | 100% | 966.4 hPa | - | - | - | - |
| 1777855058 | 10° C | 100% | 966.5 hPa | - | - | - | - |
| 1777854158 | 10° C | 100% | 966.6 hPa | - | - | - | - |
| 1777853258 | 10.56° C | 100% | 966.4 hPa | - | - | - | - |
| 1777852358 | 10.56° C | 100% | 966.4 hPa | - | - | - | - |
| 1777851458 | 10.56° C | 100% | 966.3 hPa | - | - | - | - |
| 1777850558 | 11.11° C | 100% | 966.3 hPa | - | - | - | - |
| 1777849658 | 11.11° C | 99% | 966.3 hPa | - | - | - | - |
* Rain since midnight (hover to see other rain measurements)
** Current wind speed in m/s (hover to see current wind gust speed)